Temperature
25 27 27 27 28 28 28 28 28 28 29 28 28 28 28 27 27 27 26 25 24 23 22 21 20 20 19 19 19 19 19 19 18 18 18 17 17 17 17 17 17 17 17 17
26 26 27 27 27 27 27 27 28 28 28 28 28 28 28 28 27 27 26 25 24 23 22 21 20 20 19 19 19 18 18 18 18 18 18 17 17 17 17 17 17 17 16 16
26 27 27 26 26 26 27 27 28 27 27 27 27 27 28 28 27 26 26 25 24 23 22 21 20 20 19 19 18 18 18 18 18 18 17 17 17 17 17 17 17 16 16 16
26 27 26 26 26 26 26 27 27 27 27 28 27 27 28 28 27 27 26 25 24 23 22 21 20 20 19 19 19 18 18 18 18 18 17 17 17 17 17 17 17 16 16 16
26 26 26 26 26 26 27 27 27 27 27 27 28 27 28 27 27 27 26 25 24 24 23 22 21 20 20 19 19 18 18 18 18 18 17 17 17 16 17 17 16 16 16 16
26 26 26 26 27 27 27 26 26 27 27 26 27 27 27 28 27 27 26 25 24 23 23 21 21 20 20 19 19 18 18 18 18 18 17 17 17 16 16 16 16 16 16 16
25 26 26 26 26 26 26 26 25 25 25 26 27 27 27 27 27 27 26 25 24 23 22 21 21 20 19 19 18 18 18 18 18 18 17 17 17 16 16 16 16 16 16 16
25 25 26 26 26 26 26 26 25 25 26 26 26 26 27 27 26 25 25 24 23 22 22 21 21 20 19 19 18 18 18 18 18 18 17 17 17 16 16 16 16 16 16 15
25 25 26 26 26 26 26 26 27 26 26 26 26 26 26 25 25 25 24 23 23 22 21 21 20 20 19 19 18 18 18 18 18 17 17 17 16 16 16 16 16 15 15 15
25 24 26 26 26 26 27 26 26 25 24 25 26 25 26 25 25 24 24 23 22 22 21 20 20 19 19 18 18 18 18 17 17 17 17 16 16 16 16 16 15 15 15 15
24 24 25 25 25 25 25 25 25 26 26 25 25 26 26 25 25 24 24 23 22 21 20 19 19 19 19 18 18 17 17 17 17 17 16 16 16 16 15 15 15 15 15 15
24 24 24 25 26 26 26 25 25 24 24 25 25 25 25 25 24 24 23 22 21 20 20 19 18 18 18 18 18 17 17 17 17 16 16 16 16 15 15 15 15 15 15 15
23 22 22 24 24 24 24 25 25 25 24 24 24 25 24 24 23 23 22 21 20 19 19 19 18 18 18 17 17 17 16 16 16 16 16 16 16 15 15 15 15 15 15 15
21 22 22 23 24 24 23 24 24 24 24 24 24 24 24 23 23 22 21 21 20 19 18 18 17 17 17 17 17 16 16 16 16 16 16 16 15 15 15 15 15 15 14 14
21 22 22 23 23 24 23 23 24 24 24 24 24 24 24 23 23 22 21 20 19 19 18 17 17 16 16 16 16 16 16 16 16 15 15 15 15 15 15 15 14 14 14 14
21 21 22 22 23 23 23 23 23 23 23 24 24 23 24 22 22 21 20 19 19 18 17 17 16 16 16 16 15 15 15 15 15 15 15 15 15 15 14 14 14 14 14 14
21 20 20 21 22 22 22 23 23 23 23 23 23 23 23 22 21 20 19 19 18 17 17 16 16 15 15 15 15 15 15 15 15 15 15 15 15 14 14 14 14 14 14 13
19 19 20 21 21 20 22 23 23 22 22 23 23 23 22 21 20 19 19 18 18 17 16 16 15 15 15 15 15 15 15 15 14 14 14 14 14 14 14 14 14 14 13 13
19 19 20 20 20 21 21 22 22 21 21 22 22 22 21 20 19 19 18 17 17 16 16 15 15 15 15 15 14 14 14 14 14 14 14 14 14 14 14 13 13 13 13 13
19 18 19 20 19 20 21 21 21 21 20 21 21 20 20 20 21 20 17 16 16 16 15 15 15 14 14 14 14 14 14 14 13 13 13 13 13 13 13 13 13 13 13 13
18 18 18 19 19 20 20 20 20 20 20 19 19 19 19 20 19 18 17 16 16 15 15 14 14 14 14 14 14 14 13 13 13 13 13 13 13 13 13 13 12 12 12 12
18 18 18 19 18 19 19 19 19 18 17 17 18 18 17 17 17 16 16 16 15 15 14 14 14 13 13 14 13 13 13 13 13 13 13 12 12 12 12 12 12 12 12 12
17 17 18 18 18 17 16 17 16 16 16 16 16 16 16 16 16 16 15 15 15 14 14 14 13 13 13 13 13 13 13 13 12 12 12 12 12 12 12 12 12 12 12 12
17 16 17 17 17 17 16 16 16 15 15 15 15 15 16 16 16 15 15 15 14 14 13 13 13 13 13 13 13 12 12 12 12 12 12 12 12 12 11 11 11 12 12 12
16 16 16 16 17 16 16 15 15 15 15 15 15 15 15 15 15 15 14 14 14 13 13 13 13 12 12 12 12 12 12 12 12 11 11 11 11 11 11 11 11 11 11 11
16 16 15 16 15 15 15 14 14 14 14 14 14 14 14 14 14 14 14 13 13 13 12 12 12 12 12 12 12 12 11 11 11 11 11 11 11 11 11 11 11 11 11 11
Wind_Speed
8 10 11 11 11 9 7 8 9 7 5 9 10 9 7 8 9 8 8 8 9 9 9 10 10 10 9 9 9 9 9 8 7 6 6 5 5 4 4 3 4 4 3 3
9 12 9 8 9 9 10 10 9 6 5 7 9 9 8 8 9 8 8 8 8 9 9 10 10 10 10 9 9 9 9 8 8 6 5 4 4 4 4 3 3 4 4 4
12 5 6 9 10 11 12 11 9 7 5 8 9 11 10 8 9 8 8 8 8 9 10 10 10 10 10 9 9 8 8 8 8 6 5 5 4 4 4 4 3 4 5 5
10 7 7 11 12 12 11 9 9 9 10 9 9 10 11 10 9 9 9 9 9 10 10 10 11 10 10 9 9 8 8 8 7 7 6 6 4 4 3 3 3 4 5 5
8 9 10 12 11 11 9 6 9 11 12 12 11 11 9 10 11 10 10 10 9 10 10 11 11 11 10 9 9 8 8 8 7 7 6 6 5 4 3 3 4 4 4 4
8 6 8 8 8 9 7 7 8 10 11 14 13 12 9 9 10 9 9 9 9 9 9 10 10 10 9 9 9 8 8 8 8 8 7 7 6 5 4 3 3 4 4 4
10 11 9 8 9 10 10 10 8 10 11 11 9 11 8 5 6 7 7 7 8 8 9 10 10 10 10 10 9 9 9 8 9 9 8 8 8 7 6 5 5 4 4 4
9 10 11 10 11 9 12 14 10 8 10 8 8 10 6 4 4 5 5 5 6 7 7 8 10 10 10 10 9 9 9 9 9 9 8 8 8 6 6 6 4 4 3 3
6 6 7 9 10 10 11 13 12 11 11 10 8 6 6 5 5 6 6 6 6 6 7 7 8 9 10 10 9 9 9 9 9 9 8 8 8 6 6 5 5 4 3 4
6 7 7 7 8 10 10 10 9 10 9 10 10 10 7 8 8 7 6 6 6 5 6 6 6 7 8 9 9 9 9 9 9 9 7 7 8 7 6 5 5 4 4 4
8 8 8 9 10 11 9 11 10 10 10 10 9 6 2 5 6 6 5 5 4 5 5 5 5 6 7 8 8 9 9 9 8 8 8 7 7 6 6 5 6 5 5 5
7 7 9 10 7 6 10 11 11 11 10 11 10 4 4 3 3 4 4 4 4 4 4 5 5 5 6 7 7 8 8 9 8 8 7 7 6 6 6 5 5 5 5 5
4 6 9 10 10 9 9 10 11 11 9 11 12 5 5 3 3 3 3 3 4 4 3 4 5 5 5 6 6 7 8 8 8 8 8 8 7 7 6 6 5 5 5 5
4 8 11 11 7 7 10 10 11 12 11 11 12 8 4 3 3 3 3 3 4 4 4 4 4 4 5 5 6 6 6 7 8 8 7 7 7 6 6 6 5 5 5 5
5 9 11 11 8 8 10 12 12 13 13 13 11 9 6 4 4 3 3 3 4 4 4 4 4 4 5 5 6 6 6 6 7 7 7 6 6 6 6 5 5 5 4 4
4 7 9 11 10 10 11 12 13 13 13 13 11 9 5 3 3 3 4 4 5 4 4 4 5 5 5 5 6 6 6 6 6 6 6 6 6 6 5 5 5 5 4 4
5 6 8 11 10 10 13 12 13 12 12 12 12 9 5 4 4 4 4 5 5 5 5 5 5 4 4 4 5 6 6 6 6 5 5 5 5 5 5 5 5 4 4 4
7 8 7 9 8 12 6 3 7 9 9 9 8 7 5 3 3 2 3 4 4 4 4 4 4 4 4 4 4 5 5 5 5 5 4 4 4 4 4 4 4 4 3 3
10 9 7 8 10 10 6 4 6 8 8 6 7 6 4 3 3 3 2 3 4 4 4 4 4 4 4 4 4 5 5 5 5 4 4 4 4 4 3 3 3 3 3 3
7 9 8 9 9 9 4 2 2 6 8 3 4 5 5 6 6 3 2 3 3 3 3 3 3 4 4 4 5 5 5 5 4 4 4 4 4 4 3 3 3 3 3 3
6 7 10 11 9 5 1 1 4 7 1 1 2 3 5 5 3 1 2 2 3 3 4 4 4 4 4 4 4 5 5 5 4 4 4 4 4 4 4 4 4 3 3 3
5 6 7 8 9 5 3 1 3 3 4 2 2 2 3 3 2 2 3 3 4 4 4 4 4 4 4 4 4 4 4 4 4 4 4 4 4 4 4 4 4 4 4 4
3 3 3 3 2 3 2 2 3 4 3 3 3 3 3 3 3 3 3 3 3 4 4 4 4 4 3 3 4 4 4 4 4 4 4 4 4 4 4 4 4 4 4 4
2 2 4 4 2 2 2 3 4 3 3 3 3 3 2 3 3 3 3 3 3 4 4 4 4 4 3 4 4 4 4 4 4 5 5 5 5 4 4 4 4 4 4 5
4 3 5 6 4 4 3 4 4 3 3 3 3 3 3 3 3 2 2 3 3 3 4 4 4 4 4 4 4 4 4 4 4 5 5 5 5 4 4 4 3 4 3 3
4 5 5 5 4 5 5 5 5 5 4 4 3 3 3 3 2 2 2 2 3 3 3 4 4 4 4 4 4 4 5 5 5 5 5 4 4 4 4 4 3 1 1 1
Wind_Direction
193 212 213 212 224 247 247 242 234 225 212 227 231 234 222 199 206 204 199 195 191 189 182 180 180 179 178 176 177 180 182 180 184 183 188 188 191 194 193 188 181 188 186 184
200 219 223 225 222 231 237 240 235 220 205 239 237 236 221 207 212 211 204 199 193 184 179 179 182 183 182 180 179 180 183 181 186 184 189 195 201 199 194 192 178 192 184 184
220 206 206 216 215 224 232 239 240 235 227 230 239 229 212 204 211 212 210 206 198 192 186 184 186 187 184 184 186 185 184 181 185 180 181 184 185 193 191 192 187 190 189 185
229 215 210 219 223 228 233 233 246 241 236 226 221 240 203 201 207 209 211 209 205 197 194 190 188 187 188 188 186 185 183 181 180 181 186 184 191 199 200 192 182 182 191 191
214 213 218 226 227 227 240 236 242 245 244 248 227 245 221 199 215 214 212 213 209 200 194 192 192 189 189 186 184 181 180 179 179 185 187 194 203 203 196 186 177 184 178 187
237 217 227 233 228 221 225 223 230 236 240 239 234 241 237 210 217 214 210 208 207 199 191 189 188 184 183 182 182 181 178 179 179 185 190 198 201 196 190 186 186 192 182 180
221 216 211 219 215 204 215 223 220 220 222 234 221 235 237 213 216 220 212 206 202 194 187 187 187 184 183 184 186 184 182 180 182 185 193 198 200 194 191 195 194 202 194 183
218 213 200 209 222 215 217 227 235 239 237 231 210 232 220 199 212 221 215 209 200 193 191 193 193 187 185 185 187 187 184 184 184 188 193 197 198 198 195 194 200 196 205 193
231 222 183 205 219 228 221 230 244 257 259 251 226 221 209 198 210 209 204 198 195 190 190 198 195 188 187 188 188 188 183 181 185 189 191 191 192 194 195 191 199 198 200 194
250 246 210 197 210 221 240 232 229 239 245 245 231 229 226 196 199 198 199 196 192 188 187 192 193 192 189 188 188 185 184 183 182 184 188 185 187 190 192 196 193 197 196 193
243 243 221 203 215 219 211 217 229 240 247 252 248 234 195 195 197 196 196 190 189 190 190 190 189 189 186 187 186 184 184 183 181 182 182 181 181 184 187 195 196 195 195 191
230 245 243 226 218 242 231 230 225 234 238 245 260 247 113 162 186 188 187 182 176 184 190 186 180 174 174 179 181 179 180 181 178 175 171 169 171 176 185 190 193 191 193 198
220 232 238 223 208 210 222 226 230 239 247 246 247 233 126 145 173 184 179 173 170 174 179 177 169 166 170 174 178 176 177 175 172 171 170 167 173 175 181 184 185 187 191 198
245 242 247 251 244 221 222 226 228 232 240 245 247 246 220 219 219 209 184 174 173 168 169 168 163 160 164 168 172 172 170 168 168 171 172 171 173 173 174 179 184 187 188 193
243 245 246 258 266 252 242 237 233 236 245 252 254 250 243 249 235 221 201 181 175 175 172 166 160 155 157 161 165 167 165 164 165 171 173 172 175 174 175 181 186 190 193 197
234 252 248 248 248 250 247 243 240 240 245 249 253 253 257 259 230 212 203 189 184 182 179 171 162 157 160 166 166 161 163 163 165 169 173 171 177 178 183 184 185 187 192 199
231 241 247 247 242 246 245 241 236 235 239 244 249 249 232 226 223 216 207 199 192 186 181 174 171 167 163 169 166 166 166 164 168 167 165 169 176 178 182 186 185 188 193 203
238 244 247 249 237 239 240 240 236 234 244 248 245 237 228 227 220 214 223 210 200 190 183 180 174 167 163 166 164 164 164 166 165 164 166 173 178 174 175 184 186 186 195 203
227 233 243 240 236 242 229 213 222 231 240 243 237 232 220 198 199 205 216 212 201 192 186 185 177 164 158 158 161 161 163 164 167 171 175 180 182 175 176 184 187 188 194 206
205 221 237 236 241 242 222 159 229 239 233 217 230 229 218 218 236 201 154 182 191 188 176 169 166 162 157 159 164 166 171 173 179 186 189 186 184 181 185 190 191 191 194 204
199 210 228 238 240 246 11 199 209 227 235 88 241 235 227 235 265 141 158 166 170 162 156 159 169 168 159 160 168 175 179 187 191 191 188 188 190 194 196 195 198 200 204 206
233 228 229 240 239 236 50 199 234 338 10 346 308 271 255 251 235 196 187 176 170 166 160 167 173 170 161 161 169 179 188 195 191 188 190 192 199 208 197 196 205 207 210 211
243 275 272 262 271 24 355 323 325 323 311 317 315 301 268 240 230 217 207 198 185 176 170 175 177 172 169 175 179 185 193 192 188 188 194 198 201 204 203 204 208 208 212 226
224 270 260 259 267 319 317 316 322 321 311 312 310 295 260 246 238 229 214 204 196 185 183 183 178 179 186 193 195 196 189 188 189 193 198 197 201 201 198 216 222 226 223 229
280 259 258 258 272 281 296 325 329 332 332 319 309 295 276 259 248 243 227 209 200 193 186 183 186 189 194 198 197 194 184 183 194 200 204 204 204 202 200 208 227 234 240 252
260 261 264 274 294 287 291 307 312 313 317 317 311 300 280 261 253 244 227 204 196 195 191 188 191 191 193 194 194 193 192 192 198 204 208 212 211 208 208 202 204 105 270 172
Height
1493 1490 1487 1485 1485 1484 1485 1486 1487 1485 1485 1487 1487 1487 1487 1491 1493 1494 1497 1500 1503 1506 1509 1511 1513 1515 1517 1518 1520 1521 1523 1525 1527 1528 1530 1531 1532 1534 1535 1535 1535 1536 1537 1537
1490 1487 1483 1484 1485 1487 1487 1488 1486 1484 1485 1487 1485 1485 1484 1488 1490 1492 1495 1498 1501 1504 1507 1509 1511 1513 1515 1517 1518 1520 1521 1523 1525 1526 1528 1529 1531 1532 1533 1534 1534 1535 1535 1536
1483 1481 1483 1486 1487 1489 1486 1486 1484 1486 1485 1485 1486 1486 1483 1485 1488 1491 1493 1496 1498 1501 1504 1507 1509 1511 1513 1515 1516 1518 1520 1521 1523 1525 1527 1528 1529 1530 1532 1532 1533 1534 1534 1535
1481 1481 1485 1485 1484 1485 1485 1481 1482 1484 1487 1483 1485 1488 1480 1480 1484 1487 1490 1493 1495 1498 1501 1504 1506 1508 1510 1513 1514 1516 1518 1519 1521 1523 1525 1526 1527 1529 1530 1531 1532 1532 1533 1534
1478 1479 1482 1483 1480 1481 1480 1480 1482 1482 1483 1483 1480 1486 1476 1477 1482 1482 1486 1489 1492 1495 1498 1501 1503 1505 1508 1511 1512 1514 1515 1517 1518 1520 1522 1524 1526 1527 1528 1529 1530 1531 1532 1532
1475 1478 1479 1478 1478 1480 1480 1482 1482 1481 1480 1490 1480 1484 1480 1471 1475 1478 1482 1486 1489 1492 1495 1498 1500 1503 1505 1508 1510 1511 1513 1514 1516 1517 1519 1521 1523 1525 1526 1527 1529 1530 1531 1531
1477 1475 1476 1478 1478 1479 1480 1484 1490 1491 1489 1484 1473 1479 1477 1470 1473 1476 1479 1483 1487 1489 1492 1494 1497 1500 1502 1504 1507 1509 1510 1511 1513 1515 1516 1518 1520 1522 1524 1526 1527 1528 1529 1530
1477 1475 1472 1473 1474 1475 1476 1477 1486 1492 1486 1477 1475 1477 1471 1470 1475 1478 1480 1483 1485 1487 1489 1492 1494 1497 1499 1501 1504 1506 1507 1509 1511 1512 1514 1516 1518 1520 1522 1523 1525 1526 1528 1528
1472 1472 1467 1470 1471 1471 1474 1473 1467 1474 1474 1478 1472 1471 1471 1472 1474 1477 1479 1481 1484 1486 1488 1490 1492 1494 1497 1499 1501 1503 1505 1506 1508 1510 1512 1513 1515 1517 1519 1521 1523 1525 1525 1527
1470 1475 1467 1468 1470 1470 1468 1467 1472 1476 1485 1485 1476 1474 1470 1470 1472 1475 1477 1480 1482 1485 1487 1489 1490 1492 1494 1496 1498 1500 1502 1504 1506 1508 1510 1512 1513 1516 1518 1520 1521 1522 1523 1524
1470 1475 1469 1468 1470 1467 1471 1471 1471 1470 1470 1479 1480 1474 1461 1466 1469 1473 1476 1479 1481 1484 1485 1487 1489 1490 1492 1494 1496 1498 1500 1502 1503 1506 1508 1510 1512 1514 1516 1518 1519 1520 1521 1522
1471 1471 1470 1465 1463 1464 1464 1465 1469 1477 1475 1472 1473 1473 1463 1466 1469 1473 1475 1478 1481 1483 1484 1486 1487 1488 1490 1492 1494 1496 1498 1500 1502 1504 1505 1507 1510 1512 1514 1515 1517 1518 1519 1520
1473 1474 1477 1471 1469 1467 1466 1465 1465 1467 1470 1471 1474 1473 1465 1468 1471 1473 1475 1478 1480 1482 1483 1484 1486 1486 1488 1490 1492 1494 1496 1498 1500 1502 1504 1505 1507 1509 1511 1513 1514 1515 1517 1518
1476 1472 1472 1471 1465 1462 1466 1465 1464 1467 1470 1469 1467 1466 1466 1467 1470 1473 1475 1477 1479 1481 1482 1483 1484 1486 1487 1489 1491 1492 1494 1496 1498 1500 1502 1504 1505 1507 1509 1511 1512 1513 1514 1515
1473 1471 1467 1463 1461 1461 1462 1463 1463 1465 1464 1466 1464 1463 1464 1466 1470 1473 1475 1476 1478 1480 1481 1482 1484 1485 1486 1488 1490 1492 1493 1495 1496 1499 1501 1502 1504 1505 1507 1509 1510 1511 1512 1513
1473 1471 1468 1467 1463 1461 1463 1461 1461 1462 1462 1462 1461 1464 1463 1467 1470 1472 1474 1475 1477 1478 1480 1481 1482 1484 1485 1487 1488 1490 1492 1493 1495 1497 1499 1500 1502 1504 1505 1507 1508 1509 1510 1511
1470 1471 1471 1467 1461 1463 1466 1459 1459 1460 1459 1460 1462 1462 1464 1467 1470 1472 1473 1474 1475 1477 1478 1480 1481 1483 1484 1485 1486 1488 1490 1492 1494 1495 1497 1499 1501 1502 1503 1505 1506 1507 1507 1508
1472 1472 1468 1465 1468 1476 1459 1454 1456 1458 1459 1458 1459 1461 1464 1467 1470 1472 1473 1474 1475 1476 1478 1479 1480 1481 1483 1484 1486 1487 1489 1491 1492 1494 1496 1497 1499 1500 1501 1502 1503 1504 1505 1506
1470 1471 1468 1464 1466 1462 1457 1456 1457 1459 1460 1460 1460 1462 1465 1468 1469 1471 1472 1473 1474 1476 1477 1478 1479 1480 1481 1483 1485 1486 1488 1490 1491 1493 1494 1495 1497 1498 1499 1500 1501 1502 1502 1503
1468 1469 1468 1464 1467 1466 1457 1456 1459 1460 1461 1461 1462 1463 1465 1467 1466 1468 1471 1472 1474 1475 1476 1477 1479 1480 1480 1482 1483 1485 1487 1488 1489 1491 1492 1494 1495 1495 1496 1498 1498 1499 1500 1501
1466 1467 1466 1463 1464 1458 1457 1458 1460 1465 1463 1463 1463 1464 1465 1465 1466 1469 1470 1471 1473 1474 1475 1476 1477 1478 1479 1480 1482 1483 1485 1486 1488 1489 1490 1491 1492 1493 1494 1495 1496 1497 1498 1498
1463 1462 1463 1462 1464 1464 1460 1460 1461 1463 1464 1464 1464 1465 1466 1466 1467 1468 1469 1470 1471 1472 1473 1474 1476 1477 1478 1479 1480 1481 1483 1484 1486 1487 1488 1489 1490 1492 1493 1493 1494 1495 1495 1496
1464 1464 1461 1462 1463 1464 1464 1464 1465 1465 1465 1465 1465 1465 1466 1466 1467 1468 1468 1469 1470 1471 1472 1473 1474 1475 1476 1477 1478 1479 1480 1482 1483 1484 1485 1486 1487 1488 1489 1490 1491 1491 1492 1493
1465 1466 1464 1463 1461 1463 1465 1465 1465 1465 1465 1465 1465 1465 1465 1465 1466 1467 1467 1468 1469 1469 1471 1472 1473 1473 1474 1476 1477 1478 1478 1479 1480 1481 1482 1483 1484 1485 1486 1486 1488 1489 1489 1490
1465 1466 1464 1464 1464 1464 1464 1465 1465 1464 1464 1464 1464 1464 1464 1464 1465 1465 1466 1466 1467 1468 1469 1470 1471 1471 1472 1473 1475 1475 1476 1477 1478 1479 1480 1481 1482 1482 1483 1483 1484 1486 1486 1486
1466 1466 1465 1463 1465 1465 1465 1465 1465 1464 1463 1463 1463 1463 1463 1463 1463 1464 1465 1465 1466 1467 1468 1468 1469 1470 1470 1471 1472 1473 1474 1475 1475 1476 1478 1479 1479 1480 1481 1481 1481 1481 1483 1482